Simultaneous Nadir Overpasses (SNOs) Predictions

Prediction of SNOs between LANDSAT-8 and METOP-A Satellite Orbit:

Table of predicted SNOs for the next 14.0 days since TLE Epoch: 12/21/2019
Index Date (LANDSAT-8) Time (LANDSAT-8) Lat,Lon (LANDSAT-8) SZA (LANDSAT-8 ) Date (METOP-A) Time (METOP-A) Lat,Lon (METOP-A) SZA (METOP-A ) Distance(km) Time Diff (sec)
1 12/22/2019 05:15:25 81.49, 147.71 107.47 12/22/2019 05:14:22 81.48, 147.69 107.43 0.58 63
2 12/22/2019 06:04:52 -81.48, -44.72 72.55 12/22/2019 06:05:02 -81.48, -44.63 72.54 1.50 10
3 12/25/2019 00:49:40 81.48,-146.06 107.37 12/25/2019 00:48:45 81.48,-145.92 107.36 2.39 55
4 12/25/2019 01:39:07 -81.48, 21.54 72.64 12/25/2019 01:39:26 -81.48, 21.39 72.64 2.62 19
5 12/27/2019 20:23:54 81.49, -79.47 107.26 12/27/2019 20:23:08 81.48, -79.55 107.23 1.20 46
6 12/27/2019 21:13:21 -81.48, 88.16 72.75 12/27/2019 21:13:48 -81.48, 88.19 72.74 0.87 27
7 12/30/2019 15:58:08 81.47, -13.31 107.03 12/30/2019 15:57:30 81.48, -13.18 107.04 2.49 38
8 12/30/2019 16:47:35 -81.47, 154.34 72.97 12/30/2019 16:48:11 -81.48, 154.19 72.97 2.66 36
9 01/02/2020 11:32:22 81.48, 53.20 106.79 01/02/2020 11:31:53 81.48, 53.18 106.78 0.84 29




NCC Satellite Simultaneous Nadir Overpasses (SNOs) Prediction Service
